Location: Sevilla
(37.3933°N, 5.9839°W)
Time: 04:29:52
(UTC+02:00)

Vanguard 3 - Pass Details

Date: 01 July 2024
Orbit: 508 x 3231 km, 33.4° (Epoch: 15 July)

Event Time Altitude Azimuth Distance (km) Brightness Sun altitude
Rises 10:45:28 0° 264° (W) 6,678 11.4 40.6°
Reaches altitude 10° 10:50:28 10° 263° (W) 5,328 11.0 41.6°
Maximum altitude 11:04:48 72° 183° (S) 1,779 9.6 44.4°
Drops below altitude 10° 11:12:41 10° 101° (E) 3,076 11.1 46.0°
Sets 11:14:50 0° 99° (E) 3,780 11.3 46.4°
